Volver al catálogo

METEOSAT 8

MSG 1

ActivoMeteoGEO
NORAD 27509·PAYLOAD·🇪🇺 EU

Lanzado Aug 28, 2002 desde Guiana Space Centre

Loading…

TLE

ActualizadoSource: Space-Track

Época: Sep 14, 2026, 13:56 UTC

1 27509U 02040B   26257.58099437 -.00000107  00000-0  00000-0 0  9995
2 27509  11.4293  40.5136 0013718  78.5501 113.3798  0.97904263 87816

Sigue METEOSAT 8 en tiempo real con AllMySat

Download on the App Store